Location: Unspecified
(0.0000°N, 0.0000°E)
Time: 20:39:28
(UTC+00:00)

Okean 3 - Pass Details

Date: 31 May 2019
Orbit: 577 x 601 km, 82.5° (Epoch: 17 June)

Event Time Altitude Azimuth Distance (km) Brightness Sun altitude
Exits shadow 18:54:31 10° 158° (SSE) 1,888 5.6 -13.1°
Maximum altitude 18:58:16 33° 94° (E) 981 4.1 -14.0°
Drops below altitude 10° 19:02:00 10° 29° (NNE) 1,879 6.0 -14.9°
Sets 19:04:20 0° 20° (NNE) 2,775 7.0 -15.4°
